| time (UTC) | temp C | wind direction | speed KPH | gust KPH | rain 1hr cm | rain 24hr cm | rain mn cm | humidity % | barometer mb |
| 20260505173134 | 14 | 229 | 1.6 | 11.3 | 0.00 | 0.00 | 0.00 | 87 | |
| 20260505170104 | 15 | 163 | 1.6 | 9.7 | 0.00 | 0.00 | 0.00 | 85 | |
| 20260505163116 | 15 | 255 | 3.2 | 9.7 | 0.00 | 0.00 | 0.00 | 84 | |
| 20260505153136 | 17 | 257 | 4.8 | 22.5 | 0.00 | 0.00 | 0.00 | 70 | |
| 20260505150106 | 18 | 272 | 4.8 | 17.7 | 0.00 | 0.00 | 0.00 | 62 | |
| 20260505123018 | 23 | 181 | 1.6 | 6.4 | 0.00 | 0.00 | 0.00 | 40 | |
| 20260505120048 | 23 | 178 | 1.6 | 6.4 | 0.00 | 0.00 | 0.00 | 40 | |
| 20260505113018 | 24 | 164 | 1.6 | 9.7 | 0.00 | 0.00 | 0.00 | 39 | |
| 20260505100050 | 22 | 140 | 1.6 | 6.4 | 0.00 | 0.00 | 0.00 | 48 | |
| 20260505093020 | 22 | 138 | 1.6 | 4.8 | 0.00 | 0.00 | 0.00 | 53 | |
| 20260505090051 | 22 | 135 | 1.6 | 6.4 | 0.00 | 0.00 | 0.00 | 56 | |
| 20260505083021 | 21 | 115 | 1.6 | 6.4 | 0.00 | 0.00 | 0.00 | 60 | |
| 20260505080112 | 20 | 144 | 1.6 | 6.4 | 0.00 | 0.00 | 0.00 | 63 | |
| 20260505073023 | 18 | 151 | 1.6 | 4.8 | 0.00 | 0.00 | 0.00 | 68 | |
| 20260505070053 | 17 | 128 | 0.0 | 3.2 | 0.00 | 0.00 | 0.00 | 70 | |
| 20260505063023 | 16 | 101 | 1.6 | 4.8 | 0.00 | 0.00 | 0.00 | 74 | |
| 20260505060113 | 14 | 156 | 0.0 | 3.2 | 0.00 | 0.00 | 0.00 | 78 | |
| 20260505053026 | 12 | 170 | 0.0 | 3.2 | 0.00 | 0.00 | 0.00 | 84 | |
| 20260505040056 | 10 | 172 | 0.0 | 3.2 | 0.00 | 0.00 | 0.00 | 89 | |
| 20260505033026 | 10 | 173 | 0.0 | 3.2 | 0.00 | 0.00 | 0.00 | 87 | |
| 20260505030056 | 11 | 162 | 1.6 | 3.2 | 0.00 | 0.00 | 0.00 | 84 | |
| 20260505023027 | 12 | 188 | 1.6 | 4.8 | 0.00 | 0.00 | 0.00 | 81 | |
| 20260505020058 | 13 | 172 | 1.6 | 4.8 | 0.00 | 0.00 | 0.00 | 78 | |
| 20260505013028 | 14 | 186 | 1.6 | 4.8 | 0.00 | 0.00 | 0.00 | 75 | |
| 20260505010118 | 15 | 182 | 1.6 | 4.8 | 0.00 | 0.00 | 0.00 | 73 | |
| 20260505003028 | 15 | 178 | 1.6 | 4.8 | 0.00 | 0.00 | 0.00 | 70 | |
| 20260505000059 | 15 | 154 | 0.0 | 1.6 | 0.00 | 0.00 | 0.00 | 72 | |
| 20260504233029 | 15 | 169 | 0.0 | 3.2 | 0.00 | 0.00 | 0.00 | 74 | |
| 20260504230100 | 16 | 140 | 0.0 | 1.6 | 0.00 | 0.00 | 0.00 | 71 | |
| 20260504223030 | 17 | 159 | 1.6 | 11.3 | 0.00 | 0.00 | 0.00 | 61 | |
| 20260504220100 | 15 | 181 | 1.6 | 11.3 | 0.00 | 0.00 | 0.00 | 67 | |
| 20260504213031 | 15 | 0.0 | 1.6 | 0.00 | 0.00 | 0.00 | 69 | ||
| 20260504203032 | 16 | 144 | 0.0 | 1.6 | 0.00 | 0.00 | 0.00 | 65 | |
| 20260504200122 | 17 | 146 | 0.0 | 1.6 | 0.00 | 0.00 | 0.00 | 61 | |
| 20260504193031 | 17 | 159 | 0.0 | 1.6 | 0.00 | 0.00 | 0.00 | 59 | |
| 20260504183032 | 20 | 163 | 0.0 | 3.2 | 0.00 | 0.00 | 0.00 | 52 |